Gatesville, TX

1:18 AM CST on February 12, 2016 (GMT -0600)
Gatesville

Weather History for KGOP - May, 2014

Change the Weather History Date:

Sunday, May 11, 2014

  Actual Average (KHLR) Record (KHLR)
Temperature  
Mean Temperature 80 °F -  
Max Temperature 89 °F 83 °F 95 °F (1998)
Min Temperature 71 °F 65 °F 57 °F (2006)
Cooling Degree Days 15    
Growing Degree Days 30 (Base 50)    
Moisture  
Dew Point 66 °F    
Average Humidity 66    
Maximum Humidity 88    
Minimum Humidity 43    
Precipitation  
Precipitation 0.00 in - - ()
Sea Level Pressure  
Sea Level Pressure 29.79 in    
Wind  
Wind Speed 13 mph (SSE)    
Max Wind Speed 20 mph    
Max Gust Speed 28 mph    
Visibility 10 miles    
Events      
Averages and records for this station are not official NWS values.
T = Trace of Precipitation, MM = Missing Value Source: NWS Daily Summary

Daily Weather History Graph

Daily Weather History Graph

Search for Another Location

Airport or City:

Trip Planner

Search our weather history database for the weather conditions in past years. The results will help you decide how hot, cold, wet, or windy it might be!

Date:

Astronomy

May. 11, 2014 Rise Set
Actual Time 6:37 AM CDT 8:17 PM CDT
Civil Twilight 6:11 AM CDT 8:44 PM CDT
Nautical Twilight 5:39 AM CDT 9:16 PM CDT
Astronomical Twilight 5:06 AM CDT 9:49 PM CDT
Moon 5:26 PM CDT (5/11) 4:30 AM CDT (5/11)
Length of Visible Light 14h 32m
Length of Day
13h 39m
Waxing Gibbous, 89% of the Moon is Illuminated
May 11
Waxing Gibbous
May 14
Full
May 21
Last Quarter
May 28
New
Jun 5
First Quarter

Hourly Weather History & Observations

Time (CDT) Temp. Heat Index Dew Point Humidity Pressure Visibility Wind Dir Wind Speed Gust Speed Precip Events Conditions
12:10 AM 73.4 °F - 66.2 °F 78% 29.84 in 10.0 mi SSE 10.4 mph - N/A   Clear
12:30 AM 73.4 °F - 66.2 °F 78% 29.83 in 10.0 mi SSE 12.7 mph - N/A   Clear
1:10 AM 73.4 °F - 66.2 °F 78% 29.83 in 10.0 mi SSE 11.5 mph - N/A   Clear
1:30 AM 71.6 °F - 66.2 °F 83% 29.82 in 10.0 mi SSE 12.7 mph 18.4 mph N/A   Clear
1:50 AM 71.6 °F - 66.2 °F 83% 29.83 in 10.0 mi SSE 9.2 mph - N/A   Partly Cloudy
2:10 AM 71.6 °F - 68.0 °F 88% 29.82 in 10.0 mi SSE 12.7 mph 18.4 mph N/A   Mostly Cloudy
2:30 AM 71.6 °F - 68.0 °F 88% 29.82 in 10.0 mi South 13.8 mph 18.4 mph N/A   Overcast
2:50 AM 71.6 °F - 66.2 °F 83% 29.82 in 10.0 mi SSE 16.1 mph 23.0 mph N/A   Overcast
3:10 AM 71.6 °F - 66.2 °F 83% 29.81 in 10.0 mi SSE 18.4 mph 25.3 mph N/A   Mostly Cloudy
3:30 AM 71.6 °F - 66.2 °F 83% 29.81 in 10.0 mi South 15.0 mph 20.7 mph N/A   Mostly Cloudy
3:50 AM 71.6 °F - 66.2 °F 83% 29.81 in 10.0 mi South 17.3 mph 23.0 mph N/A   Overcast
4:10 AM 73.4 °F - 66.2 °F 78% 29.81 in 10.0 mi SSE 12.7 mph 21.9 mph N/A   Overcast
4:30 AM 73.4 °F - 66.2 °F 78% 29.80 in 10.0 mi South 10.4 mph 17.3 mph N/A   Overcast
4:50 AM 73.4 °F - 66.2 °F 78% 29.80 in 10.0 mi South 11.5 mph - N/A   Mostly Cloudy
5:10 AM 73.4 °F - 66.2 °F 78% 29.81 in 10.0 mi SSE 10.4 mph - N/A   Mostly Cloudy
5:30 AM 73.4 °F - 66.2 °F 78% 29.81 in 10.0 mi South 9.2 mph - N/A   Mostly Cloudy
5:50 AM 73.4 °F - 66.2 °F 78% 29.81 in 10.0 mi South 12.7 mph - N/A   Mostly Cloudy
6:10 AM 73.4 °F - 68.0 °F 83% 29.81 in 10.0 mi SSE 9.2 mph - N/A   Mostly Cloudy
6:30 AM 73.4 °F - 68.0 °F 83% 29.82 in 10.0 mi SSE 8.1 mph - N/A   Overcast
6:50 AM 73.4 °F - 68.0 °F 83% 29.82 in 10.0 mi SSE 9.2 mph - N/A   Overcast
7:10 AM 73.4 °F - 68.0 °F 83% 29.83 in 10.0 mi SSE 9.2 mph - N/A   Mostly Cloudy
7:30 AM 73.4 °F - 66.2 °F 78% 29.83 in 10.0 mi SSE 11.5 mph 17.3 mph N/A   Overcast
7:50 AM 73.4 °F - 66.2 °F 78% 29.84 in 10.0 mi SSE 10.4 mph - N/A   Mostly Cloudy
8:10 AM 73.4 °F - 66.2 °F 78% 29.85 in 10.0 mi SSE 9.2 mph - N/A   Mostly Cloudy
8:30 AM 73.4 °F - 66.2 °F 78% 29.85 in 10.0 mi SSE 15.0 mph - N/A   Mostly Cloudy
8:50 AM 75.2 °F - 66.2 °F 73% 29.85 in 9.0 mi SSE 11.5 mph 17.3 mph N/A   Mostly Cloudy
9:10 AM 75.2 °F - 66.2 °F 73% 29.85 in 10.0 mi South 10.4 mph 23.0 mph N/A   Scattered Clouds
9:30 AM 75.2 °F - 66.2 °F 73% 29.86 in 10.0 mi South 9.2 mph 18.4 mph N/A   Mostly Cloudy
9:50 AM 77.0 °F - 66.2 °F 69% 29.85 in 10.0 mi South 12.7 mph 16.1 mph N/A   Mostly Cloudy
10:10 AM 75.2 °F - 66.2 °F 73% 29.86 in 10.0 mi South 15.0 mph 24.2 mph N/A   Mostly Cloudy
10:30 AM 77.0 °F - 66.2 °F 69% 29.86 in 10.0 mi South 13.8 mph 20.7 mph N/A   Mostly Cloudy
10:50 AM 78.8 °F - 66.2 °F 65% 29.86 in 10.0 mi South 11.5 mph - N/A   Mostly Cloudy
11:10 AM 78.8 °F - 66.2 °F 65% 29.86 in 10.0 mi SSE 13.8 mph 19.6 mph N/A   Mostly Cloudy
11:50 AM 80.6 °F 82.7 °F 66.2 °F 61% 29.85 in 10.0 mi South 15.0 mph 23.0 mph N/A   Mostly Cloudy
12:10 PM 82.4 °F 84.6 °F 66.2 °F 58% 29.84 in 10.0 mi South 13.8 mph 20.7 mph N/A   Mostly Cloudy
12:30 PM 82.4 °F 84.6 °F 66.2 °F 58% 29.84 in 10.0 mi South 12.7 mph 18.4 mph N/A   Mostly Cloudy
12:50 PM 84.2 °F 86.6 °F 66.2 °F 55% 29.83 in 10.0 mi SSE 15.0 mph 23.0 mph N/A   Mostly Cloudy
1:10 PM 84.2 °F 85.6 °F 64.4 °F 51% 29.82 in 10.0 mi South 12.7 mph 23.0 mph N/A   Mostly Cloudy
1:30 PM 84.2 °F 86.6 °F 66.2 °F 55% 29.81 in 10.0 mi South 12.7 mph 23.0 mph N/A   Mostly Cloudy
1:50 PM 84.2 °F 85.6 °F 64.4 °F 51% 29.80 in 10.0 mi SSE 16.1 mph 21.9 mph N/A   Scattered Clouds
2:10 PM 86.0 °F 87.3 °F 64.4 °F 48% 29.79 in 10.0 mi South 13.8 mph 25.3 mph N/A   Partly Cloudy
2:30 PM 87.8 °F 89.4 °F 64.4 °F 46% 29.78 in 10.0 mi SSE 16.1 mph 25.3 mph N/A   Scattered Clouds
2:50 PM 87.8 °F 89.4 °F 64.4 °F 46% 29.76 in 10.0 mi South 15.0 mph 27.6 mph N/A   Partly Cloudy
3:10 PM 89.6 °F 91.1 °F 64.4 °F 43% 29.75 in 10.0 mi South 17.3 mph 24.2 mph N/A   Clear
3:30 PM 87.8 °F 89.4 °F 64.4 °F 46% 29.74 in 10.0 mi South 15.0 mph 26.5 mph N/A   Clear
3:50 PM 89.6 °F 92.2 °F 66.2 °F 46% 29.73 in 10.0 mi SSE 13.8 mph 25.3 mph N/A   Clear
4:10 PM 89.6 °F 91.1 °F 64.4 °F 43% 29.72 in 10.0 mi SSE 19.6 mph 24.2 mph N/A   Partly Cloudy
4:30 PM 89.6 °F 91.1 °F 64.4 °F 43% 29.71 in 10.0 mi SSE 16.1 mph 25.3 mph N/A   Partly Cloudy
4:50 PM 89.6 °F 92.2 °F 66.2 °F 46% 29.71 in 10.0 mi SSE 18.4 mph 25.3 mph N/A   Clear
5:10 PM 89.6 °F 91.1 °F 64.4 °F 43% 29.70 in 10.0 mi SSE 18.4 mph 25.3 mph N/A   Clear
5:30 PM 89.6 °F 91.1 °F 64.4 °F 43% 29.70 in 10.0 mi South 19.6 mph 26.5 mph N/A   Clear
5:50 PM 89.6 °F 92.2 °F 66.2 °F 46% 29.70 in 10.0 mi SSE 15.0 mph 23.0 mph N/A   Partly Cloudy
6:10 PM 87.8 °F 89.4 °F 64.4 °F 46% 29.70 in 10.0 mi SSE 17.3 mph 26.5 mph N/A   Clear
6:30 PM 87.8 °F 90.4 °F 66.2 °F 49% 29.70 in 10.0 mi SSE 16.1 mph 25.3 mph N/A   Clear
6:50 PM 87.8 °F 90.4 °F 66.2 °F 49% 29.70 in 10.0 mi SSE 13.8 mph 21.9 mph N/A   Clear
7:10 PM 86.0 °F 88.2 °F 66.2 °F 51% 29.71 in 10.0 mi SSE 15.0 mph 21.9 mph N/A   Clear
7:30 PM 84.2 °F 86.6 °F 66.2 °F 55% 29.71 in 10.0 mi SSE 11.5 mph 19.6 mph N/A   Clear
7:50 PM 84.2 °F 86.6 °F 66.2 °F 55% 29.72 in 10.0 mi SSE 15.0 mph 23.0 mph N/A   Clear
8:10 PM 82.4 °F 84.6 °F 66.2 °F 58% 29.72 in 10.0 mi SSE 13.8 mph 20.7 mph N/A   Clear
8:30 PM 82.4 °F 84.6 °F 66.2 °F 58% 29.73 in 10.0 mi SSE 11.5 mph 18.4 mph N/A   Partly Cloudy
8:50 PM 80.6 °F 82.7 °F 66.2 °F 61% 29.74 in 10.0 mi SSE 13.8 mph 21.9 mph N/A   Clear
9:10 PM 80.6 °F 82.7 °F 66.2 °F 61% 29.75 in 10.0 mi SSE 15.0 mph 20.7 mph N/A   Clear
9:30 PM 80.6 °F 82.7 °F 66.2 °F 61% 29.76 in 10.0 mi SSE 12.7 mph 19.6 mph N/A   Clear
9:50 PM 78.8 °F - 66.2 °F 65% 29.76 in 10.0 mi SSE 15.0 mph 18.4 mph N/A   Clear
10:10 PM 78.8 °F - 68.0 °F 69% 29.77 in 10.0 mi SSE 18.4 mph 21.9 mph N/A   Clear
10:30 PM 78.8 °F - 68.0 °F 69% 29.77 in 10.0 mi SSE 12.7 mph - N/A   Clear
10:50 PM 78.8 °F - 68.0 °F 69% 29.78 in 10.0 mi SSE 15.0 mph 20.7 mph N/A   Clear
11:10 PM 77.0 °F - 68.0 °F 74% 29.79 in 10.0 mi SSE 13.8 mph - N/A   Clear
11:30 PM 77.0 °F - 68.0 °F 74% 29.79 in 10.0 mi SSE 11.5 mph 19.6 mph N/A   Partly Cloudy
11:50 PM 77.0 °F - 68.0 °F 74% 29.80 in 10.0 mi SSE 13.8 mph 17.3 mph N/A   Mostly Cloudy